SCP
0 0 0 0 0 0 0 0 0 0 0 0 0 0 0 0 0 0 0 0 0 0 0 0 0 0 0 0 0 0 0 0 0 0 0 0 0 0 0 0 0 0 0
0 0 0 0 0 0 0 0 0 0 0 0 0 0 0 0 0 0 0 0 0 0 0 0 0 0 0 0 0 0 0 0 0 0 0 0 0 0 0 0 0 0 0
0 0 0 0 0 0 0 0 0 0 0 0 0 0 0 0 0 0 0 0 0 0 0 0 0 0 0 0 0 0 0 0 0 0 0 0 0 0 0 0 0 0 0
0 0 0 0 0 0 0 0 0 0 0 0 0 0 0 0 0 0 0 0 0 0 0 0 0 0 0 0 0 0 0 0 0 0 0 0 0 0 0 0 0 0 0
0 0 0 0 0 0 0 0 0 0 0 0 0 0 0 0 0 0 0 0 0 0 0 0 0 0 0 0 0 0 0 0 0 0 0 0 0 0 0 0 0 0 0
0 0 0 0 0 0 0 0 0 0 0 0 0 0 0 0 0 0 0 0 0 0 0 0 0 0 0 0 0 0 0 0 0 0 0 0 0 0 0 0 0 0 0
0 0 0 0 0 0 0 0 0 0 0 0 0 0 0 0 0 0 0 0 0 0 0 0 0 0 0 0 0 0 0 0 0 0 0 0 0 0 0 0 0 0 0
0 0 0 0 0 0 0 0 0 0 0 0 0 0 0 0 0 0 0 0 0 0 0 0 0 0 0 0 0 0 0 0 0 0 0 0 0 0 0 0 0 0 0
0 0 0 0 0 0 0 0 0 0 0 0 0 0 0 0 0 0 0 0 0 0 0 0 0 0 0 0 0 0 0 0 0 0 0 0 0 0 0 0 0 0 0
0 0 0 0 0 0 0 0 0 0 0 0 0 0 0 0 0 0 0 0 0 0 0 0 0 0 0 0 0 0 0 0 0 0 0 0 0 0 0 0 0 0 0
0 0 0 0 0 0 0 0 0 0 0 0 0 0 0 0 0 0 0 0 0 0 0 0 0 0 0 0 0 0 0 0 0 0 0 0 0 0 0 0 0 0 0
0 0 0 0 0 0 0 0 0 0 0 0 0 0 0 0 0 0 0 0 0 0 0 0 0 0 0 0 0 0 0 0 0 0 0 0 0 0 0 0 0 0 0
0 0 0 0 0 0 0 0 0 0 0 0 0 0 0 0 0 0 0 0 0 0 0 0 0 0 0 0 0 0 0 0 0 0 0 0 0 0 0 0 0 0 0
0 0 0 0 0 0 0 0 0 0 0 0 0 0 0 0 0 0 0 0 0 0 0 0 0 0 0 0 0 0 0 0 0 0 0 0 0 0 0 0 0 0 0
0 0 0 0 0 0 0 0 0 0 0 0 0 0 0 0 0 0 0 0 0 0 0 0 0 0 0 0 0 0 0 0 0 0 0 0 0 0 0 0 0 0 0
0 0 0 0 0 0 0 0 0 0 0 0 0 0 0 0 0 0 0 0 0 0 0 0 0 0 0 0 0 0 0 0 0 0 0 0 0 0 0 0 0 0 0
0 0 0 0 0 0 0 0 0 0 0 0 0 0 0 0 0 0 0 0 0 0 0 0 0 0 0 0 0 0 0 0 0 0 0 0 0 0 0 0 0 0 0
0 0 0 0 0 0 0 0 0 0 0 0 0 0 0 0 0 0 0 0 0 0 0 0 0 0 0 0 0 0 0 0 0 0 0 0 0 0 0 0 0 0 0
0 0 0 0 0 0 0 0 0 0 0 0 0 0 0 0 0 0 0 0 0 0 0 0 0 0 0 0 0 0 0 0 0 0 0 0 0 0 0 0 0 0 0
0 0 0 0 0 0 0 0 0 0 0 0 0 0 0 0 0 0 0 0 0 0 0 0 0 0 0 0 0 0 0 0 0 0 0 0 0 0 0 0 0 0 0
0 0 0 0 0 0 0 0 0 0 0 0 0 0 0 0 0 0 0 0 0 0 0 0 0 0 0 0 0 0 0 0 0 0 0 0 0 0 0 0 0 0 0
1 0 0 0 0 0 0 0 0 0 0 0 0 0 0 0 0 0 0 0 0 0 0 0 0 0 0 0 0 0 0 0 0 0 0 0 0 0 0 0 0 0 0
1 1 0 0 0 0 0 0 0 0 0 0 0 0 0 0 0 0 0 0 0 0 0 0 0 0 0 0 0 0 0 0 0 0 0 0 0 0 0 0 0 0 0
1 1 1 0 0 0 0 0 0 0 0 0 0 0 0 0 0 0 0 0 0 0 0 0 0 0 0 0 0 0 0 0 0 0 0 0 0 0 0 0 0 0 0
1 1 1 0 0 0 0 0 0 0 0 0 0 0 0 0 0 0 0 0 0 0 0 0 0 0 0 0 0 0 0 0 0 0 0 0 0 0 0 0 0 0 0
0 0 0 0 0 0 0 0 0 0 0 0 0 0 0 0 0 0 0 0 0 0 0 0 0 0 0 0 0 0 0 0 0 0 0 0 0 0 0 0 0 0 0
Wind_Speed
2 1 1 1 1 1 1 1 1 0 1 1 1 2 2 3 3 3 3 8 8 8 8 9 9 9 9 9 10 10 10 10 10 10 10 10 10 10 9 9 9 9 9
2 2 1 1 0 1 1 1 1 1 1 1 1 1 2 2 3 3 3 5 7 7 8 8 8 8 8 9 9 10 10 10 10 10 10 10 9 9 9 9 9 9 8
2 2 1 1 0 0 0 0 1 0 0 0 1 1 1 2 3 3 3 2 3 6 7 7 8 8 8 8 8 9 9 9 9 9 10 9 9 9 9 9 9 9 9
3 2 2 1 0 0 1 1 1 0 0 0 0 1 1 1 2 3 3 2 2 2 4 7 7 7 8 8 8 8 8 9 9 9 10 10 9 9 9 9 9 8 8
2 2 1 1 1 1 1 0 1 1 0 0 0 0 0 1 1 2 3 3 3 2 2 4 6 7 8 8 8 8 8 9 9 9 9 9 9 9 8 9 9 8 8
3 2 1 1 1 1 1 1 1 1 1 0 1 1 1 0 1 1 2 2 2 3 2 2 2 3 6 7 7 8 8 9 9 9 9 9 9 8 8 8 9 9 9
2 2 1 1 1 1 1 1 1 1 1 1 2 2 2 2 1 0 1 1 2 2 2 2 2 2 2 4 5 6 7 8 9 9 9 9 9 8 8 8 8 9 9
2 2 2 1 1 1 1 1 1 1 1 1 2 2 2 3 3 1 1 1 1 1 2 3 2 2 2 2 3 6 7 7 8 9 9 8 9 9 9 9 9 9 9
2 2 3 2 2 2 1 1 1 2 1 0 1 3 2 1 1 2 1 1 1 1 1 1 2 2 2 2 2 4 6 7 7 8 7 7 7 8 9 10 9 9 9
2 2 2 2 2 2 2 1 1 1 2 0 1 0 2 3 2 1 2 1 0 1 1 1 1 1 1 2 3 4 6 6 6 6 7 7 6 6 7 9 9 10 9
1 2 2 2 2 1 2 1 1 1 1 2 1 1 0 0 1 2 1 2 2 1 1 1 1 1 2 2 3 4 6 6 6 6 5 5 6 6 6 6 8 9 9
1 1 2 2 2 1 1 2 1 1 1 1 1 1 1 1 1 2 2 1 1 2 1 1 1 2 2 2 3 5 6 6 6 5 5 5 5 5 6 6 6 7 7
1 2 2 2 2 2 2 2 2 1 2 2 2 1 1 2 2 2 2 1 1 1 1 1 1 2 2 1 2 5 6 6 6 5 5 5 5 5 5 5 5 6 6
3 2 2 2 2 2 2 2 2 2 1 2 2 2 1 1 1 2 2 3 1 1 1 2 1 2 2 2 3 5 4 6 6 6 5 5 6 5 5 5 5 5 5
2 2 2 2 2 2 2 2 2 2 1 1 2 2 1 1 1 1 2 3 3 2 2 2 2 2 2 2 4 3 3 5 6 6 5 5 6 6 5 5 5 5 5
2 2 2 2 2 2 2 2 2 2 2 2 2 2 1 1 1 1 1 1 2 3 2 2 2 2 2 2 3 3 3 5 6 6 6 6 6 6 6 6 6 6 6
3 3 3 3 2 2 2 2 2 1 2 2 2 2 2 1 1 1 1 1 1 2 2 2 1 1 1 2 1 1 2 2 3 6 6 6 6 6 6 6 6 7 7
3 3 3 2 2 2 2 2 2 1 2 2 2 2 2 1 1 1 1 1 2 2 3 2 1 1 2 2 2 2 2 2 2 4 6 7 7 7 7 7 7 7 7
2 2 2 3 3 2 2 2 2 2 2 2 3 3 3 2 2 2 2 2 2 2 2 2 2 1 1 1 1 1 1 1 2 3 5 6 7 7 8 8 7 7 7
2 2 2 3 3 3 2 2 2 2 3 3 3 3 3 3 4 3 2 2 2 1 1 2 2 1 1 1 1 1 1 1 2 2 3 4 5 6 7 7 7 7 8
2 2 2 2 2 2 3 3 3 3 2 2 2 2 3 4 4 4 3 2 2 2 2 2 2 1 1 1 2 2 2 1 2 2 2 3 2 3 4 6 7 8 8
2 2 2 2 2 2 3 4 3 2 2 2 2 2 2 2 3 3 3 4 4 4 3 3 2 3 3 3 2 2 2 1 2 2 2 3 2 3 4 4 7 9 9
2 2 2 2 2 3 4 4 4 3 2 3 3 2 2 2 1 1 1 2 3 5 6 4 4 5 4 4 3 3 3 3 4 3 2 3 2 3 4 4 8 9 9
2 2 3 3 3 4 4 5 4 3 2 3 3 3 3 2 2 1 1 1 2 3 4 4 5 6 5 5 5 5 5 3 2 2 2 2 2 3 4 3 6 8 9
3 3 3 3 3 4 5 6 4 2 2 3 3 3 3 3 4 3 2 2 3 3 4 4 5 6 7 7 5 2 2 2 3 3 2 2 2 2 2 3 4 7 8
3 3 3 3 4 4 6 6 5 2 3 2 2 2 3 4 4 3 3 3 3 4 3 3 3 3 3 5 6 6 5 4 3 3 3 3 2 1 2 2 2 2 3
Wind_Direction
165 172 193 203 228 219 202 197 210 210 185 176 170 160 176 181 177 181 185 192 191 192 194 197 197 196 196 197 196 194 192 191 189 188 186 185 187 186 191 196 197 198 197
151 151 160 172 216 228 213 185 179 191 195 167 169 169 187 183 174 174 180 193 194 194 196 197 197 197 197 197 199 199 197 196 195 192 191 191 191 191 194 197 197 198 196
149 143 133 147 226 217 124 78 65 48 73 154 186 193 173 178 166 174 179 182 188 196 197 193 191 193 195 198 199 198 196 195 195 192 191 193 196 197 198 201 202 201 197
151 138 139 181 217 74 84 91 67 54 1 57 153 205 166 169 172 175 173 173 178 189 192 190 191 192 194 197 195 193 194 194 196 196 196 198 199 201 201 201 200 198 196
152 135 144 181 139 85 70 105 64 96 63 68 168 132 122 158 172 179 175 176 180 177 177 185 188 192 196 201 201 199 200 200 199 200 200 200 200 201 202 201 200 198 196
147 129 138 146 107 90 48 51 62 48 76 141 99 50 17 11 130 160 173 172 177 178 175 179 182 199 201 205 209 207 207 206 204 203 203 201 198 198 199 200 202 202 201
144 132 132 119 114 124 147 131 95 59 26 52 62 24 4 10 48 77 132 143 158 163 159 168 174 183 205 205 207 202 205 208 205 203 203 202 202 202 201 201 201 203 203
140 140 137 141 130 117 90 79 96 84 12 75 103 79 16 355 351 6 25 160 160 152 165 174 171 178 191 190 197 193 197 201 202 200 201 204 206 206 206 207 207 208 207
149 134 143 144 137 137 165 171 135 128 143 326 121 133 138 219 304 335 335 48 113 133 167 162 168 176 186 189 197 204 196 194 197 199 202 205 209 211 211 211 211 211 211
157 153 146 144 144 152 161 184 143 140 132 136 318 197 170 162 155 302 324 334 22 139 179 182 179 179 181 198 192 190 188 189 198 204 205 204 205 206 209 214 215 215 212
186 174 167 156 159 168 169 169 151 147 152 168 196 226 48 87 143 154 259 311 335 298 229 206 183 181 200 206 199 191 183 182 187 195 198 201 205 204 203 205 210 213 214
260 210 177 169 177 182 184 191 188 181 185 182 189 166 161 174 190 162 187 243 274 287 270 220 198 201 204 208 203 185 181 181 185 193 192 188 190 195 199 202 203 203 205
242 250 204 188 197 206 197 190 193 207 202 191 205 214 202 205 183 166 157 194 245 290 311 292 229 211 204 201 212 189 186 183 186 189 187 186 188 193 199 199 203 205 207
211 222 201 195 200 205 208 186 195 217 205 205 217 213 204 220 182 168 167 163 166 305 304 268 275 239 221 202 210 191 193 187 189 189 189 191 195 198 201 202 207 212 216
206 208 196 199 205 203 209 194 207 229 207 211 214 208 205 214 204 194 170 167 165 196 263 254 254 254 230 211 212 194 190 191 188 192 195 198 200 202 203 204 205 207 212
210 201 205 208 213 213 214 207 222 232 202 221 213 203 214 221 205 203 184 179 170 173 217 237 232 242 234 217 202 197 200 197 201 203 204 204 206 209 210 212 211 207 209
203 205 207 206 208 211 210 207 218 210 206 234 236 207 225 217 205 226 197 177 183 163 199 256 243 242 222 216 192 191 191 198 216 215 215 216 217 218 216 214 213 212 212
208 210 207 203 210 213 209 206 214 215 209 225 233 220 238 226 219 234 211 210 211 195 181 225 259 238 228 213 196 196 203 198 209 220 220 220 223 224 221 217 214 214 215
214 211 198 202 213 215 216 215 207 219 232 232 226 218 226 206 232 242 223 216 219 218 179 182 231 238 232 212 180 228 232 224 221 222 216 217 223 223 221 220 217 217 218
199 215 218 215 212 211 214 219 218 230 241 242 237 225 222 213 222 226 225 219 213 209 196 184 213 231 242 235 157 191 239 242 243 244 236 227 225 224 226 223 220 219 220
208 212 215 230 227 215 217 216 220 224 232 249 259 249 238 228 222 219 220 214 201 204 202 203 220 226 236 211 212 207 208 234 256 244 242 238 223 228 232 232 229 228 223
215 202 204 216 240 238 223 218 215 227 224 228 245 262 263 251 239 241 240 226 202 201 212 211 220 221 229 219 216 209 201 204 263 245 207 242 211 227 234 229 231 227 225
214 214 219 209 228 240 230 223 216 210 221 229 231 238 253 253 234 240 261 267 246 236 216 206 217 228 223 217 204 215 212 210 230 232 189 252 240 241 246 241 234 230 226
213 222 231 230 234 248 239 227 222 217 232 241 233 221 216 234 235 208 226 278 275 259 239 223 220 230 227 220 209 210 214 224 255 248 179 223 247 244 253 245 240 231 227
221 226 230 228 232 250 244 236 224 216 233 246 244 232 211 212 228 210 200 243 275 279 274 254 237 236 238 233 217 188 193 193 250 258 205 195 237 248 258 252 247 232 224
220 228 239 235 230 242 246 237 220 202 221 240 258 251 220 215 227 218 206 218 248 263 271 290 284 273 259 242 225 205 201 202 215 246 225 188 215 189 272 263 243 233 229